SRV160M GUCY-GBYD

Flight info

Callsign SRV160M
Flight time 0h 50m
Altitude 32000
Route MEMOK1C KIRTI UB600 BJ
Aircraft B738/M-SDE2E3FGHIRWXY/LB1

Departure

Time 2026-05-05 20:15
Airport Ahmed Sékou Touré International Airport (GUCY)

Arrival

Time 2026-05-05 21:05
Airport Banjul International Airport (GBYD)
Time Latitude Longitude Altitude Speed Heading
2026-05-05 20:00 9.57366 -13.61999 81 ft 0 kts 140°
2026-05-05 20:11 9.57358 -13.61992 82 ft 4 kts 139°
2026-05-05 20:11 9.57329 -13.61966 81 ft 7 kts 137°
2026-05-05 20:11 9.57285 -13.61948 71 ft 8 kts 221°
2026-05-05 20:11 9.57250 -13.61988 72 ft 8 kts 205°
2026-05-05 20:12 9.57189 -13.61976 75 ft 13 kts 145°
2026-05-05 20:12 9.57109 -13.61917 70 ft 17 kts 167°
2026-05-05 20:12 9.57016 -13.61985 70 ft 17 kts 229°
2026-05-05 20:12 9.56937 -13.62077 71 ft 19 kts 230°
2026-05-05 20:13 9.56849 -13.62180 72 ft 19 kts 229°
2026-05-05 20:13 9.56755 -13.62271 67 ft 19 kts 191°
2026-05-05 20:13 9.56725 -13.62306 73 ft 3 kts
2026-05-05 20:13 9.56750 -13.62292 68 ft 4 kts 40°
2026-05-05 20:14 9.56774 -13.62267 68 ft 10 kts 49°
2026-05-05 20:14 9.57012 -13.61988 70 ft 92 kts 49°
2026-05-05 20:14 9.57583 -13.61316 66 ft 158 kts 49°
2026-05-05 20:14 9.58398 -13.60367 346 ft 194 kts 51°
2026-05-05 20:15 9.59258 -13.59309 1320 ft 190 kts 47°
2026-05-05 20:15 9.60088 -13.58302 2272 ft 189 kts 47°
2026-05-05 20:15 9.61006 -13.57214 2582 ft 217 kts 47°
2026-05-05 20:15 9.62044 -13.55990 2889 ft 236 kts 47°
2026-05-05 20:16 9.63117 -13.54729 3476 ft 242 kts 49°
2026-05-05 20:16 9.64226 -13.53429 4165 ft 243 kts 49°
2026-05-05 20:16 9.65338 -13.52128 4853 ft 246 kts 50°
2026-05-05 20:16 9.66503 -13.50768 5282 ft 265 kts 50°
2026-05-05 20:17 9.67724 -13.49341 6010 ft 270 kts 50°
2026-05-05 20:17 9.68955 -13.47905 6869 ft 268 kts 50°
2026-05-05 20:17 9.70180 -13.46478 7698 ft 269 kts 51°
2026-05-05 20:17 9.71415 -13.45039 8488 ft 271 kts 51°
2026-05-05 20:18 9.72640 -13.43611 9267 ft 272 kts 52°
2026-05-05 20:18 9.73902 -13.42175 10033 ft 275 kts 47°
2026-05-05 20:18 9.75509 -13.41018 10422 ft 297 kts 30°
2026-05-05 20:18 9.77586 -13.40378 10588 ft 327 kts 14°
2026-05-05 20:19 9.79914 -13.40044 10735 ft 348 kts 11°
2026-05-05 20:19 9.82399 -13.39746 10853 ft 367 kts 11°
2026-05-05 20:19 9.84989 -13.39449 11206 ft 378 kts 11°
2026-05-05 20:19 9.87574 -13.39151 11795 ft 380 kts 11°
2026-05-05 20:20 9.90216 -13.38838 12343 ft 383 kts 11°
2026-05-05 20:20 9.92872 -13.38513 12871 ft 387 kts 11°
2026-05-05 20:20 9.95556 -13.38179 13376 ft 390 kts 11°
2026-05-05 20:20 9.98259 -13.37840 13870 ft 393 kts 11°
2026-05-05 20:21 10.00991 -13.37496 14322 ft 396 kts 11°
2026-05-05 20:21 10.03738 -13.37149 14755 ft 399 kts 11°
2026-05-05 20:21 10.06506 -13.36799 15139 ft 403 kts 11°
2026-05-05 20:21 10.09301 -13.36446 15547 ft 405 kts 10°
2026-05-05 20:22 10.12113 -13.36101 15961 ft 408 kts
2026-05-05 20:22 10.14971 -13.36295 16288 ft 420 kts 347°
2026-05-05 20:22 10.17634 -13.37545 16711 ft 427 kts 327°
2026-05-05 20:22 10.19828 -13.39608 17139 ft 435 kts 308°
2026-05-05 20:23 10.21431 -13.42182 17674 ft 437 kts 301°
2026-05-05 20:23 10.22950 -13.44873 18184 ft 440 kts 300°
2026-05-05 20:23 10.24454 -13.47587 18583 ft 442 kts 300°
2026-05-05 20:23 10.25980 -13.50318 18923 ft 446 kts 300°
2026-05-05 20:24 10.27551 -13.53089 18965 ft 458 kts 301°
2026-05-05 20:24 10.29176 -13.55923 18976 ft 469 kts 301°
2026-05-05 20:24 10.30841 -13.58813 18981 ft 479 kts 301°
2026-05-05 20:24 10.32520 -13.61724 18978 ft 488 kts 301°
2026-05-05 20:25 10.34254 -13.64729 18979 ft 496 kts 301°
2026-05-05 20:25 10.36002 -13.67746 19317 ft 495 kts 301°
2026-05-05 20:25 10.37749 -13.70741 19840 ft 488 kts 301°
2026-05-05 20:25 10.39460 -13.73670 20684 ft 473 kts 301°
2026-05-05 20:26 10.40579 -13.75589 21402 ft 461 kts 301°
2026-05-05 20:26 10.42692 -13.79218 22727 ft 441 kts 300°
2026-05-05 20:26 10.43721 -13.80987 23345 ft 432 kts 300°
2026-05-05 20:26 10.45224 -13.83575 24191 ft 418 kts 300°
2026-05-05 20:27 10.46672 -13.86070 25014 ft 403 kts 300°
2026-05-05 20:27 10.48070 -13.88479 25837 ft 388 kts 300°
2026-05-05 20:27 10.49417 -13.90801 26752 ft 370 kts 300°
2026-05-05 20:27 10.50687 -13.92992 27717 ft 351 kts 300°
2026-05-05 20:28 10.51879 -13.95049 28584 ft 333 kts 300°
2026-05-05 20:28 10.53024 -13.97024 29394 ft 316 kts 300°
2026-05-05 20:28 10.54115 -13.98906 30042 ft 303 kts 300°
2026-05-05 20:28 10.55176 -14.00733 30345 ft 299 kts 299°
2026-05-05 20:29 10.56235 -14.02580 30345 ft 306 kts 295°
2026-05-05 20:29 10.56988 -14.04643 30144 ft 319 kts 285°
2026-05-05 20:29 10.57577 -14.06864 29991 ft 331 kts 284°
2026-05-05 20:30 10.58753 -14.11471 30227 ft 338 kts 284°
2026-05-05 20:30 10.59352 -14.13776 30599 ft 336 kts 284°
2026-05-05 20:30 10.59955 -14.16066 30723 ft 344 kts 284°
2026-05-05 20:30 10.60594 -14.18466 30671 ft 357 kts 284°
2026-05-05 20:31 10.61258 -14.20934 30765 ft 365 kts 285°
2026-05-05 20:31 10.62633 -14.26025 30910 ft 382 kts 284°
2026-05-05 20:32 10.64074 -14.31352 31046 ft 399 kts 284°
2026-05-05 20:32 10.65573 -14.36897 31174 ft 414 kts 284°
2026-05-05 20:33 10.67125 -14.42644 31290 ft 428 kts 284°
2026-05-05 20:33 10.68726 -14.48575 31387 ft 441 kts 284°
2026-05-05 20:33 10.69667 -14.51564 31400 ft 448 kts 295°
2026-05-05 20:34 10.71335 -14.54217 31438 ft 456 kts 310°
2026-05-05 20:34 10.76258 -14.58415 31561 ft 467 kts 321°
2026-05-05 20:35 10.81495 -14.62392 31813 ft 471 kts 321°
2026-05-05 20:35 10.84113 -14.64400 31984 ft 471 kts 321°
2026-05-05 20:35 10.86728 -14.66427 31965 ft 471 kts 321°
2026-05-05 20:36 10.91903 -14.70481 31969 ft 468 kts 320°
2026-05-05 20:36 10.97041 -14.74524 31982 ft 466 kts 320°
2026-05-05 20:37 11.02124 -14.78525 31976 ft 464 kts 320°
2026-05-05 20:37 11.07223 -14.82537 31982 ft 462 kts 320°
2026-05-05 20:38 11.12313 -14.86544 31983 ft 462 kts 320°
2026-05-05 20:38 11.17397 -14.90548 31986 ft 462 kts 320°
2026-05-05 20:39 11.22463 -14.94576 31974 ft 462 kts 320°
2026-05-05 20:39 11.27496 -14.98597 31983 ft 463 kts 320°
2026-05-05 20:40 11.32576 -15.02656 31985 ft 464 kts 319°
2026-05-05 20:40 11.37671 -15.06725 31985 ft 465 kts 319°
2026-05-05 20:41 11.42781 -15.10806 31978 ft 466 kts 319°
2026-05-05 20:41 11.47858 -15.14862 31981 ft 466 kts 319°
2026-05-05 20:42 11.52964 -15.18945 31985 ft 466 kts 319°
2026-05-05 20:42 11.58071 -15.23029 31982 ft 466 kts 319°
2026-05-05 20:43 11.63174 -15.27113 31986 ft 465 kts 319°
2026-05-05 20:43 11.68240 -15.31168 31981 ft 465 kts 319°
2026-05-05 20:44 11.73336 -15.35250 31985 ft 464 kts 319°
2026-05-05 20:44 11.78412 -15.39318 31985 ft 464 kts 319°
2026-05-05 20:45 11.86015 -15.45414 31992 ft 463 kts 319°
2026-05-05 20:45 11.91080 -15.49479 31994 ft 462 kts 319°
2026-05-05 20:46 11.96125 -15.53529 31394 ft 469 kts 319°
2026-05-05 20:46 11.98681 -15.55582 30728 ft 467 kts 320°
2026-05-05 20:46 12.01239 -15.57637 29946 ft 468 kts 320°
2026-05-05 20:47 12.03805 -15.59699 29000 ft 470 kts 320°
2026-05-05 20:47 12.06378 -15.61767 28103 ft 471 kts 320°
2026-05-05 20:47 12.08956 -15.63839 27191 ft 472 kts 320°
2026-05-05 20:47 12.11544 -15.65920 26220 ft 475 kts 320°
2026-05-05 20:48 12.14148 -15.68014 25460 ft 474 kts 320°
2026-05-05 20:48 12.16740 -15.70099 24727 ft 472 kts 320°
2026-05-05 20:48 12.19318 -15.72173 24013 ft 470 kts 321°
2026-05-05 20:48 12.21886 -15.74240 23254 ft 469 kts 321°
2026-05-05 20:49 12.24445 -15.76300 22484 ft 466 kts 321°
2026-05-05 20:49 12.26954 -15.78320 21786 ft 462 kts 321°
2026-05-05 20:49 12.29468 -15.80346 21087 ft 458 kts 321°
2026-05-05 20:49 12.31972 -15.82364 20389 ft 455 kts 321°
2026-05-05 20:50 12.34453 -15.84363 19704 ft 452 kts 321°
2026-05-05 20:50 12.36916 -15.86349 19016 ft 449 kts 322°
2026-05-05 20:50 12.39368 -15.88327 18332 ft 447 kts 322°
2026-05-05 20:50 12.41809 -15.90296 17556 ft 445 kts 322°
2026-05-05 20:51 12.44207 -15.92223 16882 ft 440 kts 323°
2026-05-05 20:51 12.46645 -15.94097 16235 ft 436 kts 324°
2026-05-05 20:51 12.49083 -15.95917 15576 ft 432 kts 324°
2026-05-05 20:51 12.51509 -15.97710 14903 ft 429 kts 324°
2026-05-05 20:52 12.53928 -15.99500 14256 ft 427 kts 324°
2026-05-05 20:52 12.56320 -16.01277 13664 ft 423 kts 324°
2026-05-05 20:52 12.58688 -16.03043 13032 ft 419 kts 324°
2026-05-05 20:52 12.61027 -16.04794 12403 ft 415 kts 324°
2026-05-05 20:53 12.63347 -16.06535 11824 ft 411 kts 325°
2026-05-05 20:53 12.65617 -16.08240 11595 ft 397 kts 325°
2026-05-05 20:53 12.67797 -16.09879 11492 ft 382 kts 325°
2026-05-05 20:53 12.69901 -16.11461 11405 ft 367 kts 325°
2026-05-05 20:54 12.71925 -16.12983 11300 ft 354 kts 325°
2026-05-05 20:54 12.73858 -16.14437 11206 ft 342 kts 325°
2026-05-05 20:54 12.75746 -16.15857 11142 ft 330 kts 325°
2026-05-05 20:54 12.77571 -16.17229 11059 ft 319 kts 325°
2026-05-05 20:55 12.79333 -16.18554 10971 ft 310 kts 325°
2026-05-05 20:55 12.81051 -16.19846 10841 ft 302 kts 325°
2026-05-05 20:55 12.82737 -16.21114 10607 ft 299 kts 326°
2026-05-05 20:55 12.84410 -16.22372 10305 ft 299 kts 326°
2026-05-05 20:56 12.86092 -16.23636 10010 ft 299 kts 326°
2026-05-05 20:56 12.87769 -16.24898 9725 ft 298 kts 326°
2026-05-05 20:56 12.89433 -16.26151 9451 ft 296 kts 326°
2026-05-05 20:56 12.91084 -16.27394 9193 ft 294 kts 326°
2026-05-05 20:57 12.92726 -16.28630 8930 ft 292 kts 326°
2026-05-05 20:57 12.94355 -16.29857 8676 ft 290 kts 326°
2026-05-05 20:57 12.95972 -16.31075 8405 ft 288 kts 326°
2026-05-05 20:57 12.97563 -16.32274 8126 ft 287 kts 326°
2026-05-05 20:58 12.99173 -16.33487 7848 ft 286 kts 325°
2026-05-05 20:58 13.00769 -16.34690 7610 ft 283 kts 325°
2026-05-05 20:58 13.02354 -16.35885 7320 ft 283 kts 325°
2026-05-05 20:58 13.03937 -16.37079 7072 ft 281 kts 326°
2026-05-05 20:59 13.05504 -16.38261 6836 ft 278 kts 326°
2026-05-05 20:59 13.07060 -16.39435 6577 ft 277 kts 326°
2026-05-05 20:59 13.08613 -16.40606 6320 ft 276 kts 326°
2026-05-05 20:59 13.10152 -16.41767 6056 ft 274 kts 325°
2026-05-05 21:00 13.11692 -16.42929 5715 ft 275 kts 325°
2026-05-05 21:00 13.13246 -16.44102 5355 ft 277 kts 325°
2026-05-05 21:00 13.14802 -16.45276 5005 ft 279 kts 325°
2026-05-05 21:00 13.16371 -16.46460 4638 ft 281 kts 324°
2026-05-05 21:01 13.17933 -16.47640 4262 ft 283 kts 323°
2026-05-05 21:01 13.19526 -16.48842 3891 ft 285 kts 323°
2026-05-05 21:01 13.21054 -16.50101 3533 ft 276 kts 314°
2026-05-05 21:01 13.22287 -16.51541 3163 ft 262 kts 307°
2026-05-05 21:02 13.23423 -16.52946 2823 ft 250 kts 309°
2026-05-05 21:02 13.24527 -16.54251 2553 ft 235 kts 309°
2026-05-05 21:02 13.25571 -16.55484 2253 ft 222 kts 308°
2026-05-05 21:02 13.26557 -16.56652 1955 ft 209 kts 307°
2026-05-05 21:03 13.27457 -16.57718 1703 ft 190 kts 307°
2026-05-05 21:03 13.28280 -16.58692 1472 ft 170 kts 306°
2026-05-05 21:03 13.29022 -16.59574 1301 ft 155 kts 309°
2026-05-05 21:03 13.29700 -16.60375 1050 ft 140 kts 307°
2026-05-05 21:04 13.30317 -16.61109 880 ft 136 kts 306°
2026-05-05 21:04 13.30975 -16.61890 707 ft 150 kts 307°
2026-05-05 21:04 13.31688 -16.62735 498 ft 158 kts 308°
2026-05-05 21:04 13.32406 -16.63581 238 ft 158 kts 307°
2026-05-05 21:05 13.33113 -16.64423 96 ft 148 kts 308°
2026-05-05 21:05 13.33709 -16.65134 89 ft 110 kts 311°
2026-05-05 21:05 13.34038 -16.65527 91 ft 26 kts 310°
2026-05-05 21:05 13.34116 -16.65584 89 ft 13 kts 21°
2026-05-05 21:06 13.34186 -16.65525 89 ft 13 kts 40°
2026-05-05 21:06 13.34253 -16.65465 90 ft 13 kts 40°
2026-05-05 21:06 13.34282 -16.65431 90 ft 4 kts 98°
2026-05-05 21:06 13.34266 -16.65410 90 ft 4 kts 129°
2026-05-05 21:07 13.34249 -16.65391 90 ft 4 kts 130°
2026-05-05 21:07 13.34248 -16.65389 90 ft 0 kts 130°